| time (UTC) | temp F | wind direction | speed knots | gust knots | rain 1hr in | rain 24hr in | rain mn in | humidity % | barometer mb |
| 20260505011531 | 63 | 355 | 2.6 | 7.8 | 0.00 | 0.00 | 0.00 | 36 | 1003.3 |
| 20260505010031 | 65 | 18 | 2.6 | 9.6 | 0.00 | 0.00 | 0.00 | 35 | 1003.1 |
| 20260505004530 | 67 | 15 | 2.6 | 13.9 | 0.00 | 0.00 | 0.00 | 35 | 1002.5 |
| 20260505003029 | 68 | 6 | 3.5 | 8.7 | 0.00 | 0.00 | 0.00 | 33 | 1002.1 |
| 20260505001529 | 69 | 46 | 3.5 | 14.8 | 0.00 | 0.00 | 0.00 | 35 | 1001.7 |
| 20260505000028 | 69 | 12 | 3.5 | 11.3 | 0.00 | 0.00 | 0.00 | 32 | 1001.9 |
| 20260504234528 | 71 | 54 | 3.5 | 9.6 | 0.00 | 0.00 | 0.00 | 32 | 1001.9 |
| 20260504233028 | 72 | 305 | 4.3 | 13.9 | 0.00 | 0.00 | 0.00 | 31 | 1001.7 |
| 20260504231527 | 73 | 310 | 4.3 | 13.9 | 0.00 | 0.00 | 0.00 | 29 | 1001.6 |
| 20260504230027 | 74 | 27 | 5.2 | 13.9 | 0.00 | 0.00 | 0.00 | 30 | 1001.0 |
| 20260504224534 | 76 | 333 | 3.5 | 12.2 | 0.00 | 0.00 | 0.00 | 29 | 1000.7 |
| 20260504223025 | 76 | 10 | 3.5 | 14.8 | 0.00 | 0.00 | 0.00 | 28 | 1000.5 |
| 20260504221524 | 77 | 288 | 5.2 | 11.3 | 0.00 | 0.00 | 0.00 | 27 | 1000.1 |
| 20260504220024 | 79 | 285 | 3.5 | 11.3 | 0.00 | 0.00 | 0.00 | 29 | 999.7 |
| 20260504214527 | 78 | 350 | 2.6 | 7.8 | 0.00 | 0.00 | 0.00 | 32 | 999.6 |
| 20260504213024 | 78 | 360 | 3.5 | 10.4 | 0.00 | 0.00 | 0.00 | 31 | 999.6 |
| 20260504211522 | 78 | 12 | 2.6 | 14.8 | 0.00 | 0.00 | 0.00 | 36 | 999.6 |
| 20260504210034 | 79 | 251 | 2.6 | 8.7 | 0.00 | 0.00 | 0.00 | 32 | 999.5 |
| 20260504204530 | 80 | 232 | 1.7 | 13.9 | 0.00 | 0.00 | 0.00 | 33 | 999.4 |
| 20260504203025 | 80 | 321 | 4.3 | 13.9 | 0.00 | 0.00 | 0.00 | 33 | 999.5 |
| 20260504201520 | 80 | 243 | 3.5 | 13.0 | 0.00 | 0.00 | 0.00 | 31 | 999.3 |
| 20260504200020 | 81 | 354 | 4.3 | 8.7 | 0.00 | 0.00 | 0.00 | 31 | 999.2 |
| 20260504194519 | 81 | 331 | 2.6 | 9.6 | 0.00 | 0.00 | 0.00 | 34 | 999.2 |
| 20260504193018 | 81 | 25 | 2.6 | 8.7 | 0.00 | 0.00 | 0.00 | 30 | 999.0 |
| 20260504191517 | 82 | 337 | 3.5 | 10.4 | 0.00 | 0.00 | 0.00 | 31 | 999.0 |
| 20260504190017 | 82 | 268 | 2.6 | 11.3 | 0.00 | 0.00 | 0.00 | 28 | 998.8 |
| 20260504184514 | 82 | 288 | 1.7 | 10.4 | 0.00 | 0.00 | 0.00 | 26 | 998.9 |
| 20260504183013 | 81 | 260 | 2.6 | 12.2 | 0.00 | 0.00 | 0.00 | 27 | 999.1 |
| 20260504181511 | 81 | 326 | 3.5 | 9.6 | 0.00 | 0.00 | 0.00 | 27 | 999.0 |
| 20260504180010 | 81 | 317 | 1.7 | 8.7 | 0.00 | 0.00 | 0.00 | 28 | 999.1 |
| 20260504174508 | 80 | 305 | 2.6 | 9.6 | 0.00 | 0.00 | 0.00 | 30 | 999.2 |
| 20260504173004 | 80 | 239 | 2.6 | 11.3 | 0.00 | 0.00 | 0.00 | 32 | 999.4 |
| 20260504171502 | 79 | 299 | 2.6 | 9.6 | 0.00 | 0.00 | 0.00 | 36 | 999.4 |
| 20260504081521 | 46 | 245 | 0.0 | 0.0 | 0.00 | 0.00 | 0.00 | 74 | 1001.2 |
| 20260504044551 | 48 | 245 | 0.0 | 0.0 | 0.00 | 0.00 | 0.00 | 77 | 1004.2 |
| 20260504043054 | 49 | 245 | 0.0 | 0.0 | 0.00 | 0.00 | 0.00 | 75 | 1004.5 |
| 20260504041544 | 50 | 245 | 0.0 | 0.0 | 0.00 | 0.00 | 0.00 | 74 | 1004.6 |
| 20260504040042 | 50 | 245 | 0.0 | 0.0 | 0.00 | 0.00 | 0.00 | 72 | 1004.6 |
| 20260504034544 | 51 | 245 | 0.0 | 0.0 | 0.00 | 0.00 | 0.00 | 72 | 1004.7 |
| 20260504033033 | 52 | 245 | 0.0 | 0.0 | 0.00 | 0.00 | 0.00 | 72 | 1004.9 |
| 20260504031533 | 54 | 245 | 0.0 | 0.0 | 0.00 | 0.00 | 0.00 | 67 | 1004.8 |
| 20260504030034 | 55 | 245 | 0.0 | 0.9 | 0.00 | 0.00 | 0.00 | 66 | 1005.0 |
| 20260504024529 | 55 | 245 | 0.0 | 0.0 | 0.00 | 0.00 | 0.00 | 64 | 1005.0 |
| 20260504023027 | 55 | 245 | 0.0 | 0.9 | 0.00 | 0.00 | 0.00 | 66 | 1005.0 |
| 20260504021526 | 56 | 245 | 0.0 | 0.0 | 0.00 | 0.00 | 0.00 | 60 | 1005.2 |
| 20260504020034 | 57 | 245 | 0.0 | 0.0 | 0.00 | 0.00 | 0.00 | 58 | 1005.2 |
| 20260504014523 | 59 | 245 | 0.0 | 0.0 | 0.00 | 0.00 | 0.00 | 56 | 1005.2 |
| 20260504013031 | 61 | 245 | 0.0 | 0.0 | 0.00 | 0.00 | 0.00 | 52 | 1005.3 |